Погода в Красногорском

Россия / Республика Марий Эл     56°09′08″N   48°19′21″E
темп.,
°C
ветер,
м/с
пор.,
м/с
влажн.,
%
обл.,
%
осадки,
мм/ч
давл.,
гПа
погр.,
м
12 мая, ср
ср1200:00+14св3780100 0.0 1027122
03:00+13всв249426 0.0 102770
06:00+15всв2479100 0.0 1027122
09:00+21вюв354975 0.0 1027562
12:00+25вюв473560 0.0 10272329
15:00+25вюв46365 0.0 10262845
18:00+22вюв22565 0.0 102432
21:00+18юв3106299 0.0 1025260
13 мая, чт
чт1300:00+15вюв227457 0.0 102514
03:00+14в337482 0.0 102546
06:00+16вюв387041 0.0 1026241
09:00+22юв574662 0.0 1025807
12:00+24юв694075 0.0 10241448
15:00+22юв4951100 0.0 1023862
18:00+22вюв4115798 0.0 1021596
21:00+20юв5156010 0.1 1020566
14 мая, пт
пт1400:00+16ююв3107589 0.1 1020235
03:00+14юв38844 0.4 1020163
06:00+16ююв268070 0.1 1021205
09:00+21ю3463100 0.1 1021519
12:00+24ююз3557100 0.0 1021982
15:00+25ююз3553100 0.0 10201368
18:00+23ю367089 0.3 1019294
21:00+17ююв338118 0.3 101945
15 мая, сб
сб1500:00+16ююв2381100 0.0 101954
03:00+15ююв2485100 0.0 101966
06:00+17ююв377796 0.0 1019173
09:00+23ю5852100 0.0 1018479
12:00+26ю61041100 0.0 1018900
15:00+27ююз61041100 0.0 10171356
18:00+23ю41253100 0.0 1016458
21:00+18ю4136646 0.0 1016255
16 мая, вс
вс1600:00+17ю313629 0.0 1016266
03:00+15ююв312645 0.0 1016214
06:00+18ю41464100 0.0 1016373
09:00+24ююз6124613 0.0 1015678
12:00+27ююз6114050 0.0 10151379
15:00+28юз512415 0.0 10132107
18:00+23юз4106099 0.0 1014584
21:00+18юз36842 0.0 101497